This is the latest recevied weather packets stored in our database for station/object N1KM-15. If no packets are shown the sender has not sent any weather packets the latest 10 day(s).
| Time | Temp. | Humidity | Pressure | Rain* | Wind** | Luminosity | Snow |
|---|---|---|---|---|---|---|---|
| 1777954500 | 9.44° C | 90% | 1010.5 hPa | 0 mm | - | - | - |
| 1777953600 | 10° C | 89% | 1010.5 hPa | 0 mm | - | - | - |
| 1777952700 | 10° C | 89% | 1010.4 hPa | 0 mm | - | - | - |
| 1777951800 | 10° C | 88% | 1010.4 hPa | 0 mm | - | - | - |
| 1777950900 | 10° C | 87% | 1010.5 hPa | 0 mm | - | - | - |
| 1777950000 | 10° C | 87% | 1010.6 hPa | 0 mm | - | - | - |
| 1777949100 | 10° C | 87% | 1010.6 hPa | 0 mm | - | - | - |
| 1777948200 | 10° C | 87% | 1010.7 hPa | 0 mm | - | - | - |
| 1777947300 | 10° C | 86% | 1010.8 hPa | 0 mm | - | - | - |
| 1777946400 | 10.56° C | 85% | 1010.7 hPa | 0 mm | - | - | - |
| 1777945500 | 10.56° C | 81% | 1010.7 hPa | 0 mm | - | - | - |
| 1777944600 | 10.56° C | 80% | 1010.5 hPa | 0 mm | - | - | - |
| 1777943700 | 10.56° C | 81% | 1010.4 hPa | 0 mm | - | - | - |
| 1777942800 | 10.56° C | 81% | 1010.1 hPa | 0 mm | - | - | - |
| 1777941900 | 11.11° C | 80% | 1009.9 hPa | 0 mm | - | - | - |
| 1777941000 | 11.67° C | 75% | 1009.6 hPa | 0 mm | - | - | - |
| 1777940100 | 12.22° C | 74% | 1009.3 hPa | 0 mm | - | - | - |
| 1777939200 | 12.78° C | 72% | 1009 hPa | 0 mm | - | - | - |
| 1777938300 | 12.78° C | 70% | 1008.9 hPa | 0 mm | - | - | - |
| 1777937400 | 12.78° C | 68% | 1008.8 hPa | 0 mm | - | - | - |
| 1777936500 | 13.33° C | 67% | 1008.6 hPa | 0 mm | - | - | - |
| 1777935600 | 13.33° C | 65% | 1008.3 hPa | 0 mm | - | - | - |
| 1777934700 | 13.33° C | 63% | 1008.4 hPa | 0 mm | - | - | - |
| 1777933800 | 13.33° C | 67% | 1008.3 hPa | 0 mm | - | - | - |
| 1777932900 | 13.89° C | 63% | 1008.1 hPa | 0 mm | - | - | - |
* Rain since midnight (hover to see other rain measurements)
** Current wind speed in m/s (hover to see current wind gust speed)